[[{"header":{"parameterUnit":"m.s-1","parameterCategory":1,"la1":30.2991,"la2":30.254,"lo1":-89.0895,"lo2":-89.0444,"dy":0.0017,"dx":0.0017,"nx":28,"ny":28,"refTime":"2024-10-04T21:00:00:Z","depth":0,"parameterNumber":2,"parameterNumberName":"U-component_of_WINDS"},"data":[0,0,0,0,0,0,0,0,0,0,0,0,0,0,0,0,0,0,0,0,0,0,0,0,0,0,0,0,0,0,0,0,0,0,0,0,0,0,0,0,0,0,0,0,0,0,0,0,0,0,0,0,0,0,0,0,0,0,-3.8342,-3.8341,0,-3.8279,-3.8279,-3.8278,-3.8099,-3.8095,-3.8091,-3.8087,-3.8028,-3.803,-3.8032,0,0,0,0,0,0,0,0,0,0,0,0,0,-3.8312,-3.8313,-3.8342,-3.8341,-3.8341,-3.8279,-3.8279,-3.8278,-3.8099,-3.8095,-3.809,-3.8085,-3.8027,-3.803,-3.8032,0,0,0,0,0,0,0,0,0,0,0,0,0,-3.8295,-3.8314,-3.8342,-3.8244,-3.8235,-3.828,-3.8278,-3.8277,-3.81,-3.8095,-3.8089,-3.8083,-3.8027,-3.803,-3.8033,-3.8169,0,0,-3.8042,-3.8044,0,0,0,0,0,0,0,0,-3.8296,-3.8296,-3.8259,-3.8251,-3.824,-3.8191,-3.8246,-3.8241,-3.8102,-3.8152,-3.8087,-3.808,-3.8087,-3.8085,-3.8086,-3.8167,-3.8164,-3.8042,-3.8044,-3.8046,-3.8047,0,0,0,0,0,0,0,-3.8298,-3.8298,-3.8317,-3.8259,-3.8247,-3.8205,-3.8196,-3.8244,-3.8153,-3.8147,-3.8134,-3.8128,-3.8081,-3.8084,-3.8084,-3.8163,-3.8042,-3.8045,-3.8047,-3.8048,-3.8352,-3.8358,0,0,0,0,0,0,-3.8312,-3.83,-3.8319,-3.8315,-3.8254,-3.821,-3.82,-3.8213,-3.8152,-3.8137,-3.8133,-3.812,-3.8081,-3.808,-3.8081,-3.8237,-3.8046,-3.8049,-3.805,-3.8346,-3.8354,-3.8361,0,0,0,0,0,0,-3.8312,-3.8316,-3.8322,-3.8304,-3.8302,-3.8217,-3.8232,-3.8215,-3.8217,-3.8142,-3.8125,-3.8153,-3.8077,-3.8077,-3.8148,-3.8232,-3.805,-3.8053,-3.8339,-3.8349,-3.8357,-3.855,0,0,0,0,0,0,-3.8312,-3.8317,-3.8367,-3.8307,-3.8303,-3.839,-3.8238,-3.8218,-3.8222,-3.8204,-3.8156,-3.8142,-3.8072,-3.8145,-3.8151,-3.8233,-3.8055,-3.8331,-3.8343,-3.8354,-3.8536,-3.8565,-3.859,0,0,0,0,0,-3.8312,-3.8425,-3.837,-3.8373,-3.8364,-3.8395,-3.8393,-3.8309,-3.823,-3.828,-3.8232,-3.8144,-3.8222,-3.8154,-3.816,-3.8244,-3.8325,-3.834,-3.8353,-3.8524,-3.856,-3.8589,0,0,0,0,0,0,-3.8499,-3.8415,-3.8354,-3.845,-3.8431,-3.8364,-3.8425,-3.8349,-3.8353,-3.8336,-3.8233,-3.8224,-3.831,-3.8284,-3.8209,-3.8373,-3.8259,-3.8275,-3.8387,-3.842,-3.8446,-3.8451,-3.8058,0,0,0,0,0,-3.8551,-3.8582,-3.8507,-3.86,-3.8593,-3.8512,-3.8522,-3.8458,-3.8435,-3.8426,-3.8383,-3.8365,-3.8385,-3.8401,-3.8415,-3.8531,-3.8519,-3.8592,-3.8619,-3.8642,-3.8657,-3.8717,-3.8749,-3.8406,-3.8406,-3.8406,0,0,-3.866,-3.8618,-3.8644,-3.8637,-3.8614,-3.8649,-3.8506,-3.8549,-3.8575,-3.8433,-3.8498,-3.8466,-3.8439,-3.8534,-3.8573,-3.8514,-3.8748,-3.8659,-3.8678,-3.8681,-3.8734,-3.8767,-3.8796,-3.8416,-3.8414,-3.8413,0,0,-3.8877,-3.8848,-3.8921,-3.8901,-3.8868,-3.8813,-3.8831,-3.8776,-3.8749,-3.8812,-3.8706,-3.8736,-3.8773,-3.8758,-3.8755,-3.8966,-3.8886,-3.8974,-3.9115,-3.9175,-3.9202,-3.9225,-3.9301,-3.9329,-3.8989,-3.899,-3.899,0,-3.9017,-3.9064,-3.897,-3.902,-3.902,-3.8891,-3.8966,-3.8952,-3.8926,-3.893,-3.8864,-3.8908,-3.888,-3.897,-3.9021,-3.9023,-3.9042,-3.8979,-3.9205,-3.9228,-3.9248,-3.9319,-3.9348,-3.9001,-3.8999,-3.8998,-3.8997,0,-3.9239,-3.9273,-3.9337,-3.9313,-3.9321,-3.9384,-3.93,-3.9319,-3.9255,-3.9207,-3.9274,-3.9236,-3.9241,-3.9257,-3.9196,-3.9339,-3.9303,-3.9223,-3.9107,-3.9293,-3.9359,-3.9385,-3.9016,-3.9012,-3.9009,-3.9006,0,0,-3.9572,-3.9495,-3.952,-3.9507,-3.9461,-3.9487,-3.9544,-3.9547,-3.9566,-3.9553,-3.9599,-3.9633,-3.9558,-3.9555,-3.9491,-3.9544,-3.9714,-3.9456,-3.9454,-3.9506,-3.987,-3.9931,-3.9964,-3.966,-3.9664,-3.9668,-3.9872,0,-3.9777,-3.9868,-3.9785,-3.9893,-3.9924,-3.9802,-3.9852,-3.983,-3.9787,-3.9809,-3.9762,-3.9788,-3.9686,-3.9684,-3.973,-3.9684,-3.9786,-3.9667,-3.9703,-3.9706,-3.9715,-3.9998,-4.0063,-4.0257,-3.9897,-3.9901,-3.9904,0,-4.0029,-4.0025,-4.0136,-4.0082,-4.0092,-4.0138,-4.0134,-4.0156,-4.0129,-4.0094,-4.0091,-4.0012,-4.0066,-3.9952,-4.0026,-3.9947,-3.9957,-3.9936,-3.9942,-3.9943,-3.9817,-4.0008,-4.0317,-4.0347,-3.9944,-3.9941,-3.9938,0,-4.0262,-4.0285,-4.0354,-4.0347,-4.0286,-4.0321,-4.0298,-4.0265,-4.0272,-4.0269,-4.0273,-4.0278,-4.028,-4.0286,-4.0212,-4.0135,-4.0296,-4.0175,-4.0269,-4.0272,-4.0309,-4.0308,-4.0626,-4.0315,-4.0315,-4.0314,-4.0313,0,-4.05,-4.0573,-4.0457,-4.05,-4.0579,-4.0482,-4.0563,-4.0527,-4.0499,-4.0534,-4.0429,-4.0465,-4.0363,-4.0389,-4.0331,-4.0401,-4.0403,-4.0378,-4.0362,-4.0388,-4.0391,-4.0393,-4.0378,-4.0322,-4.032,-4.0319,-4.0317,0,-4.0774,-4.0699,-4.0767,-4.0703,-4.0688,-4.0749,-4.0695,-4.0733,-4.0683,-4.0728,-4.0734,-4.0656,-4.068,-4.0606,-4.0619,-4.058,-4.0683,-4.0644,-4.0692,-4.068,-4.0779,-4.0772,-4.111,-4.115,-4.0814,-4.0817,-4.082,0,-4.0931,-4.0984,-4.0925,-4.094,-4.0921,-4.0947,-4.0953,-4.0861,-4.0872,-4.0845,-4.0887,-4.0902,-4.0909,-4.0954,-4.09,-4.091,-4.0872,-4.099,-4.0873,-4.0897,-4.0874,-4.0873,-4.0878,-4.1014,-4.1019,-4.1022,-4.1025,0,-4.1218,-4.1178,-4.119,-4.1189,-4.1199,-4.1195,-4.1183,-4.1202,-4.1103,-4.1121,-4.1143,-4.1149,-4.1162,-4.1179,-4.1177,-4.1154,-4.1075,-4.1062,-4.1084,-4.1112,-4.1137,-4.1126,-4.0759,-4.1055,-4.1052,-4.1049,-4.1048,-4.1047,-4.1438,-4.1479,-4.1444,-4.1461,-4.1442,-4.1434,-4.1466,-4.1419,-4.1436,-4.1437,-4.1382,-4.1417,-4.1389,-4.1378,-4.1364,-4.139,-4.1336,-4.1369,-4.1377,-4.1387,-4.1404,-4.1133,-4.139,-4.1389,-4.1388,-4.1387,-4.1386,0,-4.172,-4.1691,-4.1707,-4.1693,-4.1707,-4.1628,-4.1611,-4.1629,-4.1659,-4.1639,-4.1648,-4.1675,-4.1691,-4.1638,-4.1647,-4.1679,-4.1643,-4.1685,-4.1682,-4.1678,-4.1451,-4.1431,-4.1714,-4.1714,-4.1714,-4.1714,-4.1714,-4.1714,-4.1868,-4.1934,-4.189,-4.1946,-4.1917,-4.1948,-4.1945,-4.1938,-4.1921,-4.1955,-4.1967,-4.1931,-4.1899,-4.1904,-4.1916,-4.19,-4.1909,-4.1965,-4.1937,-4.1726,-4.1694,-4.1664,-4.1644,-4.1967,-4.1967,-4.2161,-4.2163,-4.2164]},{"header":{"parameterUnit":"m.s-1","parameterCategory":1,"la1":30.2991,"la2":30.254,"lo1":-89.0895,"lo2":-89.0444,"dy":0.0017,"dx":0.0017,"nx":28,"ny":28,"refTime":"2024-10-04T21:00:00:Z","depth":0,"parameterNumber":3,"parameterNumberName":"V-component_of_WINDS"},"data":[0,0,0,0,0,0,0,0,0,0,0,0,0,0,0,0,0,0,0,0,0,0,0,0,0,0,0,0,0,0,0,0,0,0,0,0,0,0,0,0,0,0,0,0,0,0,0,0,0,0,0,0,0,0,0,0,0,0,-2.2728,-2.2729,0,-2.2869,-2.287,-2.2872,-2.2921,-2.2921,-2.292,-2.292,-2.3061,-2.3065,-2.3069,0,0,0,0,0,0,0,0,0,0,0,0,0,-2.2498,-2.2501,-2.2728,-2.2729,-2.2731,-2.2868,-2.287,-2.2872,-2.2922,-2.2921,-2.292,-2.292,-2.306,-2.3065,-2.307,0,0,0,0,0,0,0,0,0,0,0,0,0,-2.2614,-2.2503,-2.2727,-2.2772,-2.2778,-2.2868,-2.287,-2.2873,-2.2922,-2.2921,-2.292,-2.2919,-2.3058,-2.3064,-2.3071,-2.3125,0,0,-2.309,-2.3093,0,0,0,0,0,0,0,0,-2.2607,-2.2622,-2.2764,-2.2769,-2.2776,-2.2877,-2.2841,-2.2957,-2.2922,-2.2867,-2.292,-2.2919,-2.3,-2.3011,-2.3039,-2.3132,-2.3138,-2.3091,-2.3094,-2.3097,-2.3099,0,0,0,0,0,0,0,-2.2599,-2.2616,-2.2783,-2.2766,-2.2773,-2.2784,-2.28,-2.2863,-2.2936,-2.2872,-2.2876,-2.2892,-2.3003,-2.3033,-2.3043,-2.314,-2.309,-2.3096,-2.31,-2.3102,-2.3282,-2.3283,0,0,0,0,0,0,-2.2584,-2.2609,-2.2779,-2.2788,-2.2688,-2.2789,-2.2807,-2.2845,-2.2936,-2.2949,-2.2892,-2.2894,-2.3023,-2.3036,-2.3048,-2.3117,-2.3097,-2.3103,-2.3107,-2.3281,-2.3283,-2.3284,0,0,0,0,0,0,-2.2579,-2.2598,-2.2773,-2.27,-2.2723,-2.2794,-2.2837,-2.2848,-2.2878,-2.2951,-2.2964,-2.291,-2.3022,-2.3039,-2.3105,-2.3123,-2.3106,-2.3112,-2.328,-2.3282,-2.3283,-2.3256,0,0,0,0,0,0,-2.2572,-2.2596,-2.2619,-2.27,-2.2726,-2.2829,-2.2838,-2.2852,-2.2889,-2.2892,-2.2971,-2.2983,-2.3023,-2.3096,-2.3112,-2.3131,-2.3117,-2.3279,-2.3281,-2.3283,-2.3255,-2.3256,-2.3257,0,0,0,0,0,-2.2563,-2.2605,-2.262,-2.264,-2.2756,-2.283,-2.2845,-2.2892,-2.2891,-2.2913,-2.296,-2.2981,-2.3118,-2.3102,-2.3121,-2.3142,-2.3278,-2.328,-2.3283,-2.3255,-2.3256,-2.3257,0,0,0,0,0,0,-2.2524,-2.2617,-2.2634,-2.2703,-2.2759,-2.2838,-2.2868,-2.2891,-2.2947,-2.2947,-2.3001,-2.3019,-2.308,-2.3118,-2.3098,-2.3199,-2.3199,-2.3205,-2.3172,-2.3173,-2.3174,-2.3163,-2.3122,0,0,0,0,0,-2.2523,-2.2577,-2.2655,-2.2708,-2.2735,-2.2797,-2.2831,-2.2861,-2.292,-2.2944,-2.2995,-2.3051,-2.3107,-2.3142,-2.3197,-2.3261,-2.3278,-2.3285,-2.3285,-2.3285,-2.329,-2.3325,-2.3328,-2.3291,-2.3291,-2.3291,0,0,-2.2523,-2.258,-2.261,-2.2702,-2.2748,-2.2801,-2.2816,-2.2872,-2.2911,-2.2952,-2.3018,-2.3057,-2.3123,-2.3187,-2.3218,-2.3221,-2.3304,-2.3288,-2.3288,-2.3292,-2.3327,-2.3331,-2.3334,-2.3292,-2.3292,-2.3292,0,0,-2.2548,-2.2597,-2.2647,-2.2693,-2.2763,-2.2804,-2.2815,-2.2892,-2.292,-2.2987,-2.3018,-2.3065,-2.316,-2.3205,-2.324,-2.3281,-2.3302,-2.3297,-2.3301,-2.3334,-2.3337,-2.334,-2.3353,-2.3357,-2.3302,-2.3302,-2.3302,0,-2.2538,-2.262,-2.2669,-2.2723,-2.2762,-2.2802,-2.2851,-2.2893,-2.2977,-2.3002,-2.3004,-2.3123,-2.317,-2.3245,-2.3255,-2.3282,-2.3296,-2.3289,-2.3333,-2.3336,-2.3339,-2.3353,-2.3358,-2.3301,-2.3301,-2.3301,-2.3301,0,-2.2604,-2.266,-2.2691,-2.2772,-2.2814,-2.2865,-2.2921,-2.2957,-2.2984,-2.3023,-2.309,-2.3147,-2.3215,-2.3235,-2.3261,-2.3313,-2.3312,-2.3322,-2.3324,-2.3341,-2.3354,-2.336,-2.3299,-2.3299,-2.33,-2.33,0,0,-2.2609,-2.2716,-2.2726,-2.2763,-2.2842,-2.2886,-2.2938,-2.3005,-2.3034,-2.309,-2.3135,-2.3213,-2.3223,-2.3263,-2.3294,-2.3324,-2.3351,-2.3331,-2.3333,-2.3331,-2.341,-2.3401,-2.3407,-2.3365,-2.3366,-2.3367,-2.3404,0,-2.2644,-2.2741,-2.2786,-2.2862,-2.2913,-2.2951,-2.2996,-2.3049,-2.3087,-2.3135,-2.3177,-2.3232,-2.3241,-2.3265,-2.3296,-2.3341,-2.3367,-2.3339,-2.3405,-2.3407,-2.3388,-2.3414,-2.3406,-2.3438,-2.341,-2.3411,-2.3412,0,-2.2699,-2.2755,-2.2836,-2.2909,-2.2932,-2.2972,-2.3036,-2.3082,-2.3142,-2.3167,-2.3211,-2.3241,-2.3296,-2.3293,-2.3369,-2.3348,-2.3378,-2.3404,-2.3406,-2.3414,-2.341,-2.3422,-2.3449,-2.3454,-2.342,-2.342,-2.3419,0,-2.2693,-2.279,-2.285,-2.288,-2.2967,-2.2994,-2.303,-2.309,-2.3126,-2.3181,-2.3205,-2.3265,-2.3298,-2.3344,-2.3389,-2.3383,-2.3459,-2.3461,-2.3481,-2.3479,-2.3495,-2.3493,-2.3527,-2.3515,-2.3515,-2.3514,-2.3514,0,-2.2728,-2.2775,-2.2849,-2.2886,-2.294,-2.299,-2.3042,-2.3082,-2.3134,-2.3178,-2.3215,-2.3255,-2.3313,-2.336,-2.3395,-2.3451,-2.3466,-2.3487,-2.3496,-2.3484,-2.3481,-2.3504,-2.3503,-2.3516,-2.3516,-2.3515,-2.3515,0,-2.2731,-2.2782,-2.285,-2.2926,-2.2946,-2.2983,-2.3047,-2.3084,-2.3123,-2.3179,-2.3195,-2.3256,-2.3314,-2.3363,-2.3439,-2.3463,-2.352,-2.3531,-2.35,-2.3505,-2.3522,-2.3519,-2.3571,-2.358,-2.3562,-2.3562,-2.3562,0,-2.2749,-2.2787,-2.2867,-2.2899,-2.2936,-2.2988,-2.3026,-2.3076,-2.3113,-2.3183,-2.3211,-2.3271,-2.3322,-2.3412,-2.3463,-2.3521,-2.3533,-2.3547,-2.3542,-2.3528,-2.3532,-2.3529,-2.3533,-2.3547,-2.3547,-2.3547,-2.3547,0,-2.2776,-2.2799,-2.2852,-2.2914,-2.2957,-2.3008,-2.306,-2.3084,-2.3144,-2.3183,-2.3243,-2.3282,-2.336,-2.3418,-2.3481,-2.3518,-2.3542,-2.3548,-2.3556,-2.3543,-2.3524,-2.3534,-2.35,-2.3547,-2.3547,-2.3547,-2.3547,-2.3547,-2.2787,-2.2822,-2.2883,-2.2941,-2.2985,-2.3032,-2.307,-2.3114,-2.3165,-2.3232,-2.3258,-2.3318,-2.3376,-2.3463,-2.35,-2.3547,-2.3551,-2.3562,-2.3564,-2.3566,-2.3564,-2.3516,-2.3558,-2.3559,-2.3559,-2.3559,-2.3559,0,-2.2815,-2.2856,-2.2909,-2.298,-2.3024,-2.3044,-2.3101,-2.3137,-2.319,-2.3242,-2.3291,-2.3359,-2.3416,-2.347,-2.353,-2.3557,-2.3569,-2.3571,-2.3569,-2.3577,-2.3558,-2.3545,-2.356,-2.356,-2.356,-2.356,-2.356,-2.356,-2.2835,-2.2895,-2.2925,-2.3006,-2.3046,-2.3106,-2.3137,-2.318,-2.3222,-2.3296,-2.3344,-2.3379,-2.3432,-2.3496,-2.3548,-2.3563,-2.3582,-2.3581,-2.3598,-2.3579,-2.3578,-2.3578,-2.3566,-2.3585,-2.3585,-2.3613,-2.3614,-2.3614]}]]